OKEAN-0
1 25860U 99039A 11047.51221489 .00000162 00000-0 32232-4 0 02332
2 25860 097.8679 017.3908 0001730 054.7332 305.4028 14.73710615622885
NOAA-16
1 26536U 00055A 11047.87835017 -.00000154 00000-0 -58267-4 0 01923
2 26536 099.1536 075.9085 0010765 014.9083 345.2396 14.12596570536371
NOAA-17
1 27453U 02032A 11047.90478192 -.00000018 00000-0 10087-4 0 01892
2 27453 098.3974 093.0495 0012409 138.5725 221.6379 14.24236111449530
NOAA-18
1 28654U 05018A 11047.87422261 -.00000134 00000-0 -49013-4 0 06745
2 28654 098.9818 358.8164 0015241 083.5506 276.7408 14.11435552295950
NOAA-19
1 33591U 09005A 11047.91573978 -.00000063 00000-0 -10724-4 0 08670
2 33591 098.8149 350.1612 0013729 320.1367 039.8811 14.11129118104424
HUBBLE
1 20580U 90037B 11047.25959679 .00000739 00000-0 43533-4 0 7145
2 20580 028.4706 086.2685 0003142 268.8718 091.1605 15.01163754941468
ISS
1 25544U 98067A 11048.87834359 .00023351 00000-0 17527-3 0 8450
2 25544 051.6444 052.7476 0004651 326.8986 096.5145 15.72476713702120
CO-58
1 28895U 05043F 11047.65615684 .00000252 00000-0 61818-4 0 08040
2 28895 097.9870 288.5849 0016880 236.8685 123.0926 14.60008153282653
FALCON
1 30776U 07006E 11048.85132557 .00001472 00000-0 10704-3 0 244
2 30776 035.4338 352.3209 0000355 210.7696 149.3017 15.04123586217065
MAST
1 31126U 07012K 11047.58295247 .00000158 00000-0 45917-4 0 00870
2 31126 097.9085 081.5554 0094265 185.5863 174.4285 14.53673993203560
CAPE1
1 31130U 07012P 11047.73124128 .00000256 00000-0 69447-4 0 01077
2 31130 097.9144 078.6530 0102027 194.7618 165.0591 14.52290982203151
COMPASS
1 32787U 08021E 11048.72868898 .00000491 00000-0 68268-4 0 9121
2 32787 097.8620 114.7154 0015091 202.6807 157.3740 14.82143203151861
AAUSAT2
1 32788U 08021F 11048.63905960 .00000696 00000-0 93504-4 0 9010
2 32788 097.8624 114.8156 0015050 203.4186 156.6295 14.82308357151863
DO-64
1 32789U 08021G 11047.73495593 .00001072 00000-0 13956-3 0 09186
2 32789 097.8714 114.7225 0014938 204.7584 155.2909 14.82598605151730
CO-66
1 32791U 08021J 11048.72229905 .00000212 00000-0 33412-4 0 9029
2 32791 097.8641 114.6830 0015499 201.4495 158.6071 14.81883220151816
RS-30
1 32953U 08025A 11048.62131809 .00000010 00000-0 00000 0 0 4794
2 32953 082.4964 237.0515 0018244 288.8403 071.0697 12.43010395124232
TACSAT-3
1 35001U 09028A 11048.82534842 .00012268 00000-0 25698-3 0 5064
2 35001 040.4502 175.4103 0022862 039.0339 321.2122 15.44889847 98596
PHARMSAT
1 35002U 09028B 11047.75043680 .00010275 00000-0 21468-3 0 4719
2 35002 040.4683 179.3813 0024161 036.2681 323.9772 15.45061835 98456
HAWKSAT1
1 35003U 09028C 11047.68416744 .00031748 00000-0 50658-3 0 05168
2 35003 040.4510 163.7828 0023435 060.0958 300.2190 15.52179166098620
CP6
1 35004U 09028D 11048.66802771 .00037647 00000-0 54886-3 0 5180
2 35004 040.4532 153.5236 0022482 075.0744 285.2554 15.54622349 98810
AEROCUB3
1 35005U 09028E 11006.09222617 .14049365 73043-5 82692-3 0 6103
2 35005 040.4461 021.7975 0025578 084.1677 280.7191 16.39196088 92544
METEOR-M
1 35865U 09049A 11048.73109671 .00000176 00000-0 10000-3 0 1100
2 35865 098.7220 105.3234 0003088 032.7887 327.3463 14.21831995 73617
RS-38
1 35869U 09049E 11048.81583271 .00000177 00000-0 10000-3 0 1229
2 35869 098.7214 105.4464 0004878 025.3490 334.7910 14.22000164 73634
